Weather History for Sheridan, WY

Change the Weather History Date:

Tuesday, January 31, 2012

  Actual Average Record
Temperature  
Mean Temperature 35 °F 24 °F  
Max Temperature 48 °F 37 °F 66 °F (1992)
Min Temperature 22 °F 12 °F -32 °F (1918)
Degree Days  
Heating Degree Days 30 41  
Month to date heating degree days 1134 1280  
Since 1 July heating degree days 3971 4460  
Cooling Degree Days 0 0  
Month to date cooling degree days 0 0  
Year to date cooling degree days 0 0  
Moisture  
Dew Point 20 °F    
Average Humidity 60    
Maximum Humidity 88    
Minimum Humidity 31    
Precipitation  
Precipitation 0.00 in 0.02 in 0.40 in (1913)
Month to date precipitation 0.35 0.56  
Year to date precipitation 0.35 0.56  
Sea Level Pressure  
Sea Level Pressure 30.01 in    
Wind  
Wind Speed 4 mph (SSE)    
Max Wind Speed 14 mph    
Max Gust Speed 17 mph    
Visibility 10 miles    
Events      
T = Trace of Precipitation, MM = Missing Value Source: NWS Daily Summary

Daily Weather History Graph

Daily Weather History Graph

Search for Another Location

Airport:

Trip Planner

Search our weather history database for the weather conditions in past years. The results will help you decide how hot, cold, wet, or windy it might be!

Date:

Astronomy

Jan. 31, 2012 Rise Set
Actual Time 7:28 AM MST 5:14 PM MST
Civil Twilight 6:57 AM MST 5:45 PM MST
Nautical Twilight 6:22 AM MST 6:20 PM MST
Astronomical Twilight 5:48 AM MST 6:55 PM MST
Moon 11:04 AM MST (1/31) 1:20 AM MST (1/31)
Length of Visible Light 10h 48m
Length of Day
9h 45m
First Quarter, 56% of the Moon is Illuminated
Jan 31
First Quarter
Feb 7
Full
Feb 14
Last Quarter
Feb 21
New
Feb 29
First Quarter

Hourly Weather History & Observations

Time (MST) Temp. Windchill Dew Point Humidity Pressure Visibility Wind Dir Wind Speed Gust Speed Precip Events Conditions
12:53 AM 32.0 °F 26.4 °F 21.9 °F 66% 29.85 in 10.0 mi NW 5.8 mph - N/A   Clear
1:53 AM 30.0 °F 25.2 °F 19.9 °F 66% 29.89 in 10.0 mi South 4.6 mph - N/A   Clear
2:53 AM 27.0 °F 20.5 °F 21.0 °F 78% 29.91 in 10.0 mi SSW 5.8 mph - N/A   Clear
3:53 AM 28.0 °F - 21.0 °F 75% 29.94 in 10.0 mi Calm Calm - N/A   Clear
4:53 AM 25.0 °F - 19.0 °F 78% 29.97 in 10.0 mi Calm Calm - N/A   Clear
5:53 AM 28.0 °F - 19.0 °F 69% 29.99 in 10.0 mi Calm Calm - N/A   Clear
6:53 AM 23.0 °F 15.8 °F 19.0 °F 85% 30.03 in 10.0 mi SSW 5.8 mph - N/A   Clear
7:53 AM 26.1 °F 19.4 °F 19.0 °F 75% 30.04 in 10.0 mi SSW 5.8 mph - N/A   Scattered Clouds
8:53 AM 30.0 °F 26.5 °F 21.0 °F 69% 30.02 in 10.0 mi SE 3.5 mph - N/A   Clear
9:53 AM 37.9 °F - 21.9 °F 53% 30.04 in 10.0 mi Calm Calm - N/A   Clear
10:53 AM 42.1 °F 40.2 °F 23.0 °F 47% 30.03 in 10.0 mi East 3.5 mph - N/A   Clear
11:53 AM 43.0 °F 38.2 °F 19.9 °F 40% 30.01 in 10.0 mi SE 8.1 mph - N/A   Clear
12:53 PM 45.0 °F 41.2 °F 21.0 °F 39% 29.99 in 10.0 mi East 6.9 mph - N/A   Clear
1:53 PM 48.0 °F - 19.0 °F 32% 29.99 in 10.0 mi ENE 6.9 mph - N/A   Clear
2:53 PM 46.9 °F - 18.0 °F 32% 30.00 in 10.0 mi NNW 8.1 mph - N/A   Clear
3:53 PM 48.0 °F - 19.0 °F 32% 30.00 in 10.0 mi North 3.5 mph - N/A   Clear
4:53 PM 39.9 °F 36.7 °F 19.9 °F 45% 30.03 in 10.0 mi South 4.6 mph - N/A   Clear
5:53 PM 30.9 °F 24.3 °F 21.0 °F 67% 30.06 in 10.0 mi SSW 6.9 mph - N/A   Clear
6:53 PM 30.2 °F 25.4 °F 19.4 °F 64% 29.95 in 10.0 mi South 4.6 mph - N/A   Clear
7:53 PM 28.0 °F 21.7 °F 21.0 °F 75% 30.07 in 10.0 mi South 5.8 mph - N/A   Clear
8:53 PM 33.1 °F 30.0 °F 18.0 °F 54% 30.05 in 10.0 mi SSE 3.5 mph - N/A   Clear
9:53 PM 30.0 °F - 19.0 °F 64% 30.06 in 10.0 mi Calm Calm - N/A   Partly Cloudy
10:53 PM 37.0 °F 30.4 °F 19.9 °F 50% 30.07 in 10.0 mi North 9.2 mph - N/A   Scattered Clouds
11:53 PM 37.0 °F - 21.0 °F 52% 30.09 in 10.0 mi Calm Calm - N/A   Overcast